EW6252 Weather Reports


time (UTC)temp
F
wind
direction
speed
knots
gust
knots
rain 1hr
in
rain 24hr
in
rain mn
in
humidity
%
barometer
mb
20260510061026 76 0.0 0.0 0.00 0.02 0.00 100 1009.6
20260510060514 76 0.0 0.0 0.00 0.02 0.00 100 1009.6
20260510060004 76 0.0 0.0 0.00 0.02 0.00 100 1009.6
20260510055706 76 0.0 0.0 0.00 0.02 0.00 100 1009.6
20260510055153 76 0.0 0.0 0.00 0.02 0.00 100 1009.6
20260510054417 77 0.0 0.0 0.00 0.02 0.00 100 1009.6
20260510053917 77 0.0 0.0 0.00 0.02 0.00 100 1009.8
20260510053411 76 0.0 0.0 0.00 0.02 0.00 100 1009.8
20260510053140 77 0.0 0.0 0.00 0.02 0.00 100 1009.8
20260510052405 77 0.0 0.0 0.00 0.02 0.00 100 1010.0
20260510051843 77 0.0 0.0 0.00 0.02 0.00 100 1010.0
20260510051318 77 0.0 0.0 0.00 0.02 0.00 100 1010.1
20260510050810 76 0.0 0.0 0.00 0.02 0.00 100 1010.1
20260510050257 77 0.0 0.0 0.00 0.02 0.00 100 1010.1
20260510045720 77 0.0 0.0 0.00 0.02 0.02 100 1009.8
20260510045220 77 0.0 0.0 0.00 0.02 0.02 100 1009.8
20260510044150 77 0.0 0.0 0.00 0.02 0.02 100 1010.0
20260510043849 77 0.0 0.0 0.00 0.02 0.02 100 1010.0
20260510043120 77 0.0 0.0 0.00 0.02 0.02 100 1010.0
20260510042620 78 0.0 0.0 0.00 0.02 0.02 100 1009.8
20260510042109 77 0.0 0.0 0.00 0.02 0.02 100 1009.8
20260510041551 77 0.0 0.0 0.00 0.02 0.02 100 1009.8
20260510041050 77 0.0 0.0 0.00 0.02 0.02 100 1010.1
20260510040545 77 0.0 0.0 0.00 0.02 0.02 100 1010.1
20260510040254 77 0.0 0.0 0.00 0.02 0.02 100 1010.1
20260510035516 77 0.0 0.0 0.00 0.02 0.02 100 1010.1
20260510035014 76 0.0 0.0 0.00 0.02 0.02 100 1010.1
20260510034501 76 0.0 0.0 0.00 0.02 0.02 100 1010.1
20260510033925 77 0.0 0.0 0.00 0.02 0.02 100 1009.8
20260510033654 77 0.0 0.0 0.00 0.02 0.02 100 1009.8
20260510032920 77 0.0 0.0 0.00 0.02 0.02 100 1009.8
20260510032404 77 0.0 0.0 0.00 0.02 0.02 100 1009.5
20260510031859 77 0.0 0.0 0.00 0.02 0.02 100 1009.5
20260510031555 77 0.0 0.0 0.00 0.02 0.02 100 1009.5
20260510030819 77 0.0 0.0 0.00 0.02 0.02 100 1009.0
20260510030319 77 0.0 0.0 0.00 0.02 0.02 100 1009.0
20260510025816 76 0.0 0.0 0.00 0.02 0.02 100 1008.6
20260510025255 76 0.0 0.0 0.00 0.02 0.02 100 1008.6
20260510024733 76 0.0 0.0 0.00 0.02 0.02 100 1008.6
20260510024226 76 0.0 0.0 0.00 0.02 0.02 100 1008.5
20260510023718 76 0.0 0.0 0.00 0.02 0.02 100 1008.5
20260510023215 76 0.0 0.0 0.00 0.02 0.02 100 1008.5
20260510022653 77 0.0 0.0 0.00 0.02 0.02 100 1008.2
20260510022122 76 0.0 0.0 0.01 0.02 0.02 100 1008.2
20260510021621 76 0.0 0.0 0.01 0.02 0.02 100 1008.2
20260510021347 76 0.0 0.0 0.01 0.02 0.02 100 1007.9
20260510020609 76 0.0 0.0 0.02 0.02 0.02 100 1007.9
20260510020057 76 0.0 0.0 0.02 0.02 0.02 100 1007.9
20260510015528 76 0.0 0.0 0.02 0.02 0.02 100 1007.5
20260510015020 76 0.0 0.0 0.02 0.02 0.02 100 1007.5
20260510014500 76 0.0 0.0 0.02 0.02 0.02 100 1007.5
20260510013957 76 0.0 0.0 0.02 0.02 0.02 100 1007.0
20260510013447 77 0.0 0.0 0.02 0.02 0.02 100 1007.0
20260510012928 77 0.0 0.0 0.02 0.02 0.02 100 1007.0
20260510012415 77 0.0 0.0 0.02 0.02 0.02 100 1006.8
20260510011859 77 0.0 0.0 0.01 0.01 0.01 100 1006.8
20260510010825 77 0.0 0.0 0.00 0.00 0.00 19 1007.5
20260510010321 78 0.0 0.0 0.00 0.00 0.00 40 1007.5
20260510005815 79 0.0 0.0 0.00 0.00 0.00 54 1007.0
20260510005021 79 0.0 0.0 0.00 0.00 0.00 57 1007.0
20260510004245 79 0.0 0.0 0.00 0.00 0.00 57 1007.4
20260510003729 79 0.0 0.0 0.00 0.00 0.00 56 1007.4
20260510003226 80 0.0 0.0 0.00 0.00 0.00 55 1007.4
20260510002722 81 0.0 0.0 0.00 0.00 0.00 53 1006.8
20260510002220 82 0.0 0.0 0.00 0.00 0.00 53 1006.8
20260510001720 85 0.0 0.0 0.00 0.00 0.00 53 1006.8
20260510001449 88 0.0 0.0 0.00 0.00 0.00 50 1006.2
20260510000944 89 0.0 0.0 0.00 0.00 0.00 51 1006.2
20260510000207 90 0.0 0.0 0.00 0.00 0.00 50 1006.2
20260509235707 90 0.0 0.0 0.00 0.00 0.00 49 1006.4
20260509234650 91 0.0 0.0 0.00 0.00 0.00 48 1006.4
20260509234419 91 0.0 0.0 0.00 0.00 0.00 48 1006.3
20260509233621 91 0.0 0.0 0.00 0.00 0.00 48 1006.3
20260509233118 92 0.0 0.0 0.00 0.00 0.00 47 1006.3
20260509232620 92 0.0 0.0 0.00 0.00 0.00 47 1006.3
20260509232056 92 0.0 0.0 0.00 0.00 0.00 47 1006.3
20260509231553 93 0.0 0.0 0.00 0.00 0.00 46 1006.3
20260509231051 93 0.0 0.0 0.00 0.00 0.00 47 1006.3
20260509230540 92 0.0 0.0 0.00 0.00 0.00 48 1006.3
20260509230019 92 0.0 0.0 0.00 0.00 0.00 47 1006.3
20260509225509 91 0.0 0.0 0.00 0.00 0.00 48 1006.0
20260509225008 91 0.0 0.0 0.00 0.00 0.00 49 1006.0
20260509224737 90 0.0 0.0 0.00 0.00 0.00 49 1006.0
20260509223945 90 0.0 0.0 0.00 0.00 0.00 49 1006.0
20260509223433 91 0.0 0.0 0.00 0.00 0.00 48 1006.0
20260509222930 91 0.0 0.0 0.00 0.00 0.00 48 1006.0
20260509222426 92 0.0 0.0 0.00 0.00 0.00 47 1005.8
20260509221922 92 0.0 0.0 0.00 0.00 0.00 48 1005.8
20260509221652 92 0.0 0.0 0.00 0.00 0.00 48 1005.8
20260509220917 93 257 2.6 3.5 0.00 0.00 0.00 47 1006.0
20260509220357 92 257 2.6 3.5 0.00 0.00 0.00 47 1006.0
20260509215839 92 257 2.6 5.2 0.00 0.00 0.00 47 1006.0
20260509215608 92 257 2.6 5.2 0.00 0.00 0.00 47 1006.0
20260509214833 92 242 3.5 6.1 0.00 0.00 0.00 48 1006.0
20260509214334 92 267 2.6 6.1 0.00 0.00 0.00 48 1006.0
20260509214105 92 294 2.6 6.1 0.00 0.00 0.00 47 1006.0
20260509213334 92 261 3.5 6.1 0.00 0.00 0.00 47 1006.0
20260509212835 92 241 2.6 7.0 0.00 0.00 0.00 47 1006.0
20260509212334 92 273 2.6 7.0 0.00 0.00 0.00 47 1006.0
20260509211833 92 13 2.6 6.1 0.00 0.00 0.00 46 1006.0
20260509211334 92 318 2.6 6.1 0.00 0.00 0.00 47 1006.0
20260509210828 92 245 1.7 5.2 0.00 0.00 0.00 46 1006.2
20260509210315 91 296 2.6 7.8 0.00 0.00 0.00 46 1006.2
20260509205804 91 244 2.6 7.8 0.00 0.00 0.00 46 1006.5
20260509205252 91 286 2.6 7.0 0.00 0.00 0.00 46 1006.5
20260509204229 92 12 1.7 5.2 0.00 0.00 0.00 45 1006.6
20260509203722 91 303 1.7 6.1 0.00 0.00 0.00 46 1006.6
20260509203221 91 265 2.6 6.1 0.00 0.00 0.00 46 1006.6
20260509202721 91 291 3.5 6.1 0.00 0.00 0.00 45 1006.9
20260509202222 91 290 1.7 6.1 0.00 0.00 0.00 45 1006.9
20260509201721 91 186 0.9 7.0 0.00 0.00 0.00 45 1006.9
20260509201454 90 277 1.7 7.0 0.00 0.00 0.00 46 1007.0
20260509200721 90 44 2.6 7.0 0.00 0.00 0.00 46 1007.0
20260509200222 90 315 2.6 7.0 0.00 0.00 0.00 45 1007.0
20260509195721 90 237 2.6 7.0 0.00 0.00 0.00 45 1007.0
20260509195222 90 271 2.6 7.0 0.00 0.00 0.00 45 1007.0
20260509194953 90 232 2.6 7.0 0.00 0.00 0.00 45 1007.0
20260509194219 90 196 2.6 7.0 0.00 0.00 0.00 45 1007.1
20260509193721 89 180 0.9 4.3 0.00 0.00 0.00 45 1007.1
20260509193220 89 101 0.9 4.3 0.00 0.00 0.00 45 1007.1
20260509192721 89 128 1.7 4.3 0.00 0.00 0.00 44 1007.5
20260509192220 89 198 1.7 4.3 0.00 0.00 0.00 44 1007.5
20260509191719 88 223 2.6 5.2 0.00 0.00 0.00 44 1007.5
20260509191219 88 246 3.5 5.2 0.00 0.00 0.00 43 1007.3
20260509190719 88 0.0 0.0 0.00 0.00 0.00 42 1007.3
20260509190208 88 0.0 0.0 0.00 0.00 0.00 42 1007.3
20260509185659 87 0.0 0.0 0.00 0.00 0.00 42 1007.2
20260509185131 87 0.0 0.0 0.00 0.00 0.00 42 1007.2
20260509184630 87 0.0 0.0 0.00 0.00 0.00 41 1007.2
20260509184122 86 0.0 0.0 0.00 0.00 0.00 40 1007.5
20260509183602 86 0.0 0.0 0.00 0.00 0.00 39 1007.5
20260509182534 86 0.0 0.0 0.00 0.00 0.00 39 1007.9
20260509182026 86 0.0 0.0 0.00 0.00 0.00 39 1007.9
20260509181521 87 0.0 0.0 0.00 0.00 0.00 36 1007.9
20260509181019 87 0.0 0.0 0.00 0.00 0.00 37 1007.9
20260509180512 87 0.0 0.0 0.00 0.00 0.00 35 1007.9
20260509180005 86 0.0 0.0 0.00 0.00 0.00 27 1007.9
20260509175444 86 0.0 0.0 0.00 0.00 0.00 28 1008.4
20260509174935 85 0.0 0.0 0.00 0.00 0.00 24 1008.4
20260509174432 85 0.0 0.0 0.00 0.00 0.00 18 1008.4
20260509173920 84 0.0 0.0 0.00 0.00 0.00 14 1008.6
20260509173410 83 0.0 0.0 0.00 0.00 0.00 15 1008.6
20260509172523 83 0.0 0.0 0.00 0.00 0.00 100 1008.9
20260509172019 82 0.0 0.0 0.00 0.00 0.00 100 1008.9
20260509171518 82 0.0 0.0 0.00 0.00 0.00 100 1008.9
20260509171017 82 0.0 0.0 0.00 0.00 0.00 100 1009.1
20260509170452 82 0.0 0.0 0.00 0.00 0.00 100 1009.1
20260509165417 82 0.0 0.0 0.00 0.00 0.00 100 1009.0
20260509164835 81 0.0 0.0 0.00 0.00 0.00 100 1009.0
20260509164332 80 0.0 0.0 0.00 0.00 0.00 100 1009.0
20260509163831 79 0.0 0.0 0.00 0.00 0.00 100 1009.1
20260509163320 79 0.0 0.0 0.00 0.00 0.00 100 1009.1
20260509162816 79 0.0 0.0 0.00 0.00 0.00 100 1008.9
20260509162228 79 0.0 0.0 0.00 0.00 0.00 100 1008.9
20260509161720 78 0.0 0.0 0.00 0.00 0.00 100 1008.9
20260509161423 78 0.0 0.0 0.00 0.00 0.00 100 1008.7
20260509160650 78 0.0 0.0 0.00 0.00 0.00 100 1008.7
20260509160121 78 0.0 0.0 0.00 0.00 0.00 100 1008.7
20260509155615 78 0.0 0.0 0.00 0.00 0.00 100 1008.6
20260509154609 78 0.0 0.0 0.00 0.00 0.00 100 1008.6
20260509154318 78 0.0 0.0 0.00 0.00 0.00 100 1008.6
20260509153532 77 0.0 0.0 0.00 0.00 0.00 100 1008.6
20260509153017 77 0.0 0.0 0.00 0.00 0.00 100 1008.6
20260509152516 77 0.0 0.0 0.00 0.00 0.00 100 1008.6
20260509151945 77 0.0 0.0 0.00 0.00 0.00 100 1008.6
20260509151445 77 0.0 0.0 0.00 0.00 0.00 100 1008.6
20260509150921 77 0.0 0.0 0.00 0.00 0.00 100 1008.6
20260509150419 77 0.0 0.0 0.00 0.00 0.00 100 1008.6
20260509150149 77 0.0 0.0 0.00 0.00 0.00 100 1008.6
20260509145404 77 0.0 0.0 0.00 0.00 0.00 100 1008.0
20260509144843 77 0.0 0.0 0.00 0.00 0.00 100 1008.0
20260509144324 77 0.0 0.0 0.00 0.00 0.00 100 1008.0
20260509143816 77 0.0 0.0 0.00 0.00 0.00 100 1008.0
20260509143305 76 0.0 0.0 0.00 0.00 0.00 100 1008.0
20260509142758 76 0.0 0.0 0.00 0.00 0.00 100 1008.0
20260509142221 76 0.0 0.0 0.00 0.00 0.00 100 1008.0
20260509141721 76 0.0 0.0 0.00 0.00 0.00 100 1008.0
20260509141152 76 0.0 0.0 0.00 0.00 0.00 100 1007.6
20260509140645 76 0.0 0.0 0.00 0.00 0.00 100 1007.6
20260509140354 76 0.0 0.0 0.00 0.00 0.00 100 1007.6
20260509135623 76 0.0 0.0 0.00 0.00 0.00 100 1008.0
20260509135115 76 0.0 0.0 0.00 0.00 0.00 100 1008.0
20260509134103 76 0.0 0.0 0.00 0.00 0.00 100 1008.5
20260509133558 76 0.0 0.0 0.00 0.00 0.00 100 1008.5
20260509133052 76 0.0 0.0 0.00 0.00 0.00 100 1008.5
20260509132759 76 0.0 0.0 0.00 0.00 0.00 100 1009.0
20260509132258 76 0.0 0.0 0.00 0.00 0.00 100 1009.0
20260509131517 76 0.0 0.0 0.00 0.00 0.00 100 1009.0
20260509131000 76 0.0 0.0 0.00 0.00 0.00 100 1009.1
20260509130456 76 0.0 0.0 0.00 0.00 0.00 100 1009.1
20260509125922 76 0.0 0.0 0.00 0.00 0.00 100 1009.1
20260509125647 76 0.0 0.0 0.00 0.00 0.00 100 1008.7
20260509124913 76 0.0 0.0 0.00 0.00 0.00 100 1008.7
20260509124409 76 0.0 0.0 0.00 0.00 0.00 100 1008.7
20260509123858 76 0.0 0.0 0.00 0.00 0.00 100 1008.9
20260509123332 76 0.0 0.0 0.00 0.00 0.00 100 1008.9
20260509122823 76 0.0 0.0 0.00 0.00 0.00 100 1009.0
20260509122321 76 0.0 0.0 0.00 0.00 0.00 100 1009.0
20260509121805 76 0.0 0.0 0.00 0.00 0.00 100 1009.0
20260509121459 76 0.0 0.0 0.00 0.00 0.00 100 1009.1
20260509120720 76 0.0 0.0 0.00 0.00 0.00 100 1009.1
20260509120451 76 0.0 0.0 0.00 0.00 0.00 100 1009.1
20260509115131 76 0.0 0.0 0.00 0.00 0.00 100 1008.6
20260509114625 76 0.0 0.0 0.00 0.00 0.00 100 1008.6
20260509114121 76 0.0 0.0 0.00 0.00 0.00 100 1008.1
20260509113557 76 0.0 0.0 0.00 0.00 0.00 100 1008.1
20260509113052 76 0.0 0.0 0.00 0.00 0.00 100 1008.1
20260509112523 76 0.0 0.0 0.00 0.00 0.00 100 1008.1
20260509112250 76 0.0 0.0 0.00 0.00 0.00 100 1008.1
20260509111518 76 0.0 0.0 0.00 0.00 0.00 100 1008.1
20260509110943 76 0.0 0.0 0.00 0.00 0.00 100 1008.1
20260509110443 76 0.0 0.0 0.00 0.00 0.00 100 1008.1
20260509105927 76 0.0 0.0 0.00 0.00 0.00 100 1008.1
20260509105650 76 0.0 0.0 0.00 0.00 0.00 100 1008.1
20260509104913 76 0.0 0.0 0.00 0.00 0.00 100 1008.1
20260509104329 76 0.0 0.0 0.00 0.00 0.00 100 1007.8
20260509103829 76 0.0 0.0 0.00 0.00 0.00 100 1007.8
20260509103549 76 0.0 0.0 0.00 0.00 0.00 100 1007.8
20260509102817 76 0.0 0.0 0.00 0.00 0.00 100 1008.0
20260509102308 76 0.0 0.0 0.00 0.00 0.00 100 1008.0
20260509101728 76 0.0 0.0 0.00 0.00 0.00 100 1008.0
20260509101146 76 0.0 0.0 0.00 0.00 0.00 100 1007.6
20260509100619 76 0.0 0.0 0.00 0.00 0.00 100 1007.6
20260509100119 76 0.0 0.0 0.00 0.00 0.00 100 1007.6
20260509095609 76 0.0 0.0 0.00 0.00 0.00 100 1007.6
20260509095333 76 0.0 0.0 0.00 0.00 0.00 100 1007.6
20260509094552 76 0.0 0.0 0.00 0.00 0.00 100 1007.6
20260509094046 76 0.0 0.0 0.00 0.00 0.00 100 1007.5
20260509093532 76 0.0 0.0 0.00 0.00 0.00 100 1007.5
20260509093021 76 0.0 0.0 0.00 0.00 0.00 100 1007.5
20260509092521 76 0.0 0.0 0.00 0.00 0.00 100 1007.5
20260509092223 76 0.0 0.0 0.00 0.00 0.00 100 1007.5
20260509091421 76 0.0 0.0 0.00 0.00 0.00 100 1007.5
20260509090916 76 0.0 0.0 0.00 0.00 0.00 100 1007.5
20260509090334 76 0.0 0.0 0.00 0.00 0.00 100 1007.5
20260509085826 76 0.0 0.0 0.00 0.00 0.00 100 1007.5
20260509085322 76 0.0 0.0 0.00 0.00 0.00 100 1007.8
20260509084821 76 0.0 0.0 0.00 0.00 0.00 100 1007.8
20260509084553 76 0.0 0.0 0.00 0.00 0.00 100 1007.6
20260509083817 76 0.0 0.0 0.00 0.00 0.00 100 1007.6
20260509083317 76 0.0 0.0 0.00 0.00 0.00 100 1007.6
20260509082221 76 0.0 0.0 0.00 0.00 0.00 100 1007.6
20260509081717 76 0.0 0.0 0.00 0.00 0.00 100 1007.6
20260509081212 76 0.0 0.0 0.00 0.00 0.00 100 1007.2
20260509080626 76 0.0 0.0 0.00 0.00 0.00 100 1007.2
20260509080128 76 0.0 0.0 0.00 0.00 0.00 100 1007.2
20260509075621 76 0.0 0.0 0.00 0.00 0.00 100 1007.3
20260509074622 76 0.0 0.0 0.00 0.00 0.00 100 1007.3
20260509074113 76 0.0 0.0 0.00 0.00 0.00 100 1007.6
20260509073606 76 0.0 0.0 0.00 0.00 0.00 100 1007.6
20260509073018 76 0.0 0.0 0.00 0.00 0.00 100 1007.6
20260509072731 76 0.0 0.0 0.00 0.00 0.00 100 1008.2
20260509071952 76 0.0 0.0 0.00 0.00 0.00 100 1008.2
20260509071435 76 0.0 0.0 0.00 0.00 0.00 100 1008.2
20260509070922 76 0.0 0.0 0.00 0.00 0.00 100 1008.5
20260509070418 76 0.0 0.0 0.00 0.00 0.00 100 1008.5
20260509065902 76 0.0 0.0 0.00 0.00 0.00 100 1008.5
20260509065616 76 0.0 0.0 0.00 0.00 0.00 100 1008.4
20260509064831 76 0.0 0.0 0.00 0.00 0.00 100 1008.4
20260509064321 76 0.0 0.0 0.00 0.00 0.00 100 1008.3
20260509064051 76 0.0 0.0 0.00 0.00 0.00 100 1008.3
20260509063321 76 0.0 0.0 0.00 0.00 0.00 100 1008.3
20260509062737 76 0.0 0.0 0.00 0.00 0.00 100 1008.1
20260509062217 76 0.0 0.0 0.00 0.00 0.00 100 1008.1
20260509061717 76 0.0 0.0 0.00 0.00 0.00 100 1008.1